Regional Weather Roundup
Issued by NWS

Home | Current Version | Previous Version | Graphics & Text | Print | Product List | Glossary On
Versions: 1 2 3 4 5 6 7 8 9 10 11 12 13 14 15 16 17 18 19 20 21 22 23 24 25 26 27 28 29 30 31 32 33 34 35 36 37 38 39 40 41 42 43 44 45 46 47 48 49 50
000
ASUS43 KMPX 261601
RWRMN
WEATHER ROUNDUP FOR MINNESOTA
NATIONAL WEATHER SERVICE TWIN CITIES/CHANHASSEN MN
1100 AM CDT WED JUL 26 2017


NOTE: "FAIR" INDICATES FEW OR NO CLOUDS BELOW 12,000 FEET WITH NO
SIGNIFICANT WEATHER AND/OR OBSTRUCTIONS TO VISIBILITY. N/A MEANS
CURRENT SKY AND/OR WEATHER CONDITIONS ARE NOT AVAILABLE.

MNZ060>063-068>070-261700-
   Twin Cities Metro

CITY           SKY/WX    TMP DP  RH WIND       PRES   REMARKS
TWIN CITIES    CLOUDY    74  70  87 W5        30.02R
ST PAUL        CLOUDY    73  73 100 SW5       30.02R FOG
CRYSTAL        PTSUNNY   76  68  76 NW3       30.00S
BLAINE         PTSUNNY   77  72  83 CALM      30.02R
LAKEVILLE      CLOUDY    70  70 100 CALM      30.03S
SOUTH ST PAUL  CLOUDY    73  72  98 W3        30.02R
LAKE ELMO      DRIZZLE   73  72  94 S6        30.03R
$$
MNZ001>005-007-008-013>017-022>024-027-028-261700-
   Northwest Minnesota

CITY           SKY/WX    TMP DP  RH WIND       PRES   REMARKS
BEMIDJI        PTSUNNY   74  59  58 NW9       30.04R
HALLOCK        MOSUNNY   73  64  73 NW9       30.04R
ROSEAU         MOSUNNY   73  64  73 N10       30.02R
WARROAD        MOSUNNY   73  63  68 NW8       30.02R
CROOKSTON      SUNNY     73  63  68 N10       30.06R
FOSSTON        SUNNY     72  61  68 NW10      30.06R
DETROIT LAKES  SUNNY     72  61  68 N8        30.08R
MOORHEAD       SUNNY     73  61  64 N8        30.07R
PARK RAPIDS    MOSUNNY   77  58  51 NW10      30.05R
MAHNOMEN       FAIR      73  61  65 N8        30.06R
$$
MNZ006-009>011-018-025>026-261700-
   North Central Minnesota

CITY           SKY/WX    TMP DP  RH WIND       PRES   REMARKS
BAUDETTE       SUNNY     75  61  61 NW14      30.00R
FLAG ISLAND    SUNNY     72  59  64 N14       30.00R
INTL FALLS     MOSUNNY   75  60  59 NW9       29.98R
WASKISH        MOSUNNY   73  64  73 SW9       30.01S
BIG FORK       MOSUNNY   73  61  64 NW3       30.01S
LONGVILLE      SUNNY     75  61  60 NW5       30.03S
GRAND RAPIDS   MOSUNNY   73  62  68 SW7       30.04R
CRANE LAKE     SUNNY     72  57  60 N7        29.99S
ORR            SUNNY     73  55  53 W5        29.97S
COOK             N/A     72  57  60 W7        30.01R
WALKER         FAIR      73  59  60 NW9       30.04R
$$
MNZ012-019>021-037-261700-
   Northeast Minnesota

CITY           SKY/WX    TMP DP  RH WIND       PRES   REMARKS
DULUTH         MOSUNNY   75  59  57 W8        30.00S
ELY            SUNNY     72  54  53 N3        29.98S
HIBBING        SUNNY     73  57  57 NW8       30.01R
EVELETH        SUNNY     73  46  38 NW9       30.02R
DULUTH HARBOR  SUNNY     77  61  57 CALM      29.99S
TWO HARBORS    SUNNY     79  63  57 N6        29.97R
SILVER BAY     SUNNY     77  59  53 CALM      29.96S
G MARAIS ARPRT SUNNY     72  52  49 NW7       29.98S
$$
MNZ029>031-032-039>041-046>048-054>057-064-261700-
   West Central Minnesota

CITY           SKY/WX    TMP DP  RH WIND       PRES   REMARKS
FERGUS FALLS   SUNNY     73  61  64 NW7       30.06R
WHEATON        CLOUDY    77  57  50 NW8       30.09R
MORRIS         CLOUDY    79  61  53 E6        30.06S
ALEXANDRIA     SUNNY     75  59  57 CALM      30.08R
ELBOW LAKE     FAIR      74  60  62 N6        30.08R HAZE
WADENA         SUNNY     75  59  57 N9        30.05S
GLENWOOD       CLOUDY    75  59  57 E5        30.08R
APPLETON       CLOUDY    73  61  64 CALM      30.06S
BENSON         CLOUDY    75  61  60 E3        30.08S
ORTONVILLE     CLOUDY    75  63  64 MISG      30.08R
MADISON        CLOUDY    77  64  65 NE3       30.07R
WILLMAR        FAIR      75  64  69 E3        30.07R
$$
MNZ033>034-036-042>043-049>051-058-059-261700-
   Central Minnesota

CITY           SKY/WX    TMP DP  RH WIND       PRES   REMARKS
ST CLOUD       CLOUDY    75  67  76 NW5       30.04R
SAUK CENTRE    FAIR      74  59  60 CALM      30.06S
PAYNESVILLE    CLOUDY    72  64  75 CALM      30.06S
AITKIN         MOSUNNY   75  61  60 W3        30.02S
PINE RIVER     MOSUNNY   75  59  57 NW7       30.07R
BRAINERD       SUNNY     75  59  57 W5        30.04R
STAPLES        SUNNY     75  57  53 W5        30.05R
LONG PRAIRIE   FAIR      72  59  64 CALM      30.07R
LITTLE FALLS   SUNNY     73  59  60 CALM      30.05S
LITCHFIELD     CLOUDY    75  70  83 CALM      30.05S
BUFFALO        CLOUDY    74  65  73 CALM      30.04S
MAPLE LAKE     CLOUDY    75  68  79 N3        30.05R
HUTCHINSON     MOSUNNY   76  67  75 CALM      30.04S
$$
MNZ037-044-045-052-053-261700-
   East Central Minnesota

CITY           SKY/WX    TMP DP  RH WIND       PRES   REMARKS
PRINCETON      CLOUDY    77  66  69 N3        30.03S
MORA           CLOUDY    73  61  64 N5        30.05R
CAMBRIDGE      CLOUDY    75  63  64 NW3       30.01F
RUSH CITY      RAIN      73  66  78 N6        30.03S
MOOSE LAKE     MOSUNNY   73  61  64 CALM      30.01S
HINCKLEY       FAIR      72  63  73 N3        30.02S
CLOQUET        MOSUNNY   75  55  50 CALM      30.01S
MCGREGOR       SUNNY     75  61  60 SW5       30.03S
$$
MNZ071>073-080-081-089-090-097-098-261700-
   Southwest Minnesota

CITY           SKY/WX    TMP DP  RH WIND       PRES   REMARKS
MONTEVIDEO     CLOUDY    77  66  69 E6        30.07R
GRANITE FALLS  CLOUDY    79  66  64 E6        30.07R
CANBY          CLOUDY    76  64  67 CALM      30.08R
MARSHALL       CLOUDY    74  69  85 E10       30.06R
REDWOOD FALLS  CLOUDY    73  69  87 NE3       30.04R
OLIVIA         CLOUDY    73  68  83 SE3       30.04R
PIPESTONE      CLOUDY    75  68  78 E8        30.07R
WINDOM         CLOUDY    73  70  88 E3        30.04R
WORTHINGTON    CLOUDY    75  68  78 NE6       30.05R
JACKSON        CLOUDY    73  70  88 CALM      30.04S
TRACY          CLOUDY    73  71  93 NE6       30.06R
SLAYTON        HVY RAIN  72  67  87 NE5       30.06S
$$
MNZ065>067-074>077-082>085-091>093-261700-
   South Central Minnesota

CITY           SKY/WX    TMP DP  RH WIND       PRES   REMARKS
MANKATO        LGT RAIN  73  70  90 E7        30.02F
NEW ULM        CLOUDY    72  70  94 N6        30.03S
ST JAMES       CLOUDY    73  70  88 SE6       30.04R
FAIRMONT       PTSUNNY   73  70  90 SE7       30.03F
GLENCOE        CLOUDY    74  73  93 CALM      30.03S
FARIBAULT      LGT RAIN  72  70  94 W3        30.04R
OWATONNA       LGT RAIN  73  72  94 CALM      30.03S
WASECA         DRIZZLE   72  70  94 NW3       30.05R
ALBERT LEA     LGT RAIN  72  72 100 CALM      30.04S
$$
MNZ078>079-086>088-094>096-261700-
   Southeast Minnesota

CITY           SKY/WX    TMP DP  RH WIND       PRES   REMARKS
ROCHESTER      LGT RAIN  73  69  87 W6        30.02F
RED WING       LGT RAIN  72  70  94 CALM      30.01R
STANTON        LGT RAIN  72  69  91 NW5       30.03R
DODGE CENTER   LGT RAIN  73  68  83 W3        30.03F
WINONA         CLOUDY    73  68  83 CALM      30.01S
AUSTIN         LGT RAIN  72  70  94 S5        30.04R
PRESTON        CLOUDY    71  68  91 SE5       30.05S
$$
ABBREVIATIONS USED IN REMARKS
   TC - TEMPERATURES IN CELSIUS
  WCI - WIND CHILL INDEX
   HX - HEAT INDEX
  VSB - VISIBILITY
$$



USA.gov is the U.S. government's official web portal to all federal, state and local government web resources and services.